Flag for Germany Weather past 2 weeks in Altenburg, Thuringia, Germany

Now
70 °F

Passing clouds.


Feels Like: 70 °F
Forecast: 56 / 83 °F
Wind: 3 mph from Northeast

Location: Altenburg Nobitz

Current Time: Jul 25, 2014 at 9:28:02 PM

Latest Report: Jul 25, 2014 at 7:20 PM


Visibility: N/A

Pressure: 29.92 "Hg

Humidity: 73%

Dew point: 61 °F

Location of AltenburgLocation

Historic Weather in Altenburg — Graph

°F

Altenburg temperature yesterday

Maximum temperature yesterday: 72 °F (at 10:50 AM)
Minimum temperature yesterday: 63 °F (at 1:50 AM)
Average temperature yesterday: 67 °F

Past Weeks' High & Low Weather Summary

 TemperatureHumidityPressure
High91 °F (Jul 20, 1:50 PM)100% (Jul 25, 8:20 AM)30.21 "Hg (Jul 25, 8:20 AM)
Low57 °F (Jul 12, 9:20 AM)26% (Jul 20, 1:50 PM)29.77 "Hg (Jul 13, 1:50 PM)
Average74 °F59%29.97 "Hg
* Reported Jul 10 7:50 PM — Jul 25 7:20 PM, Altenburg, Weather by CustomWeather, © 2014

Note: Actual official high and low records may vary slightly from our data, if they occured in-between our weather recording intervals... More about our weather records

Advertising

Altenburg weather history for previous 24 hours

 ConditionsComfort  
Time TempWeatherWind HumidityBarometerVisibility
7:20 PM
Jul 25
70 °FPassing clouds.3 mph73%29.92 "HgN/A
6:50 PM70 °FPassing clouds.7 mph78%29.92 "HgN/A
6:20 PM70 °FPassing clouds.6 mph78%29.92 "HgN/A
5:50 PM72 °FScattered clouds.3 mph73%29.92 "HgN/A
5:20 PM72 °FScattered clouds.5 mph73%29.92 "HgN/A
4:50 PM70 °FBroken clouds.5 mph78%29.92 "HgN/A
4:20 PM70 °FBroken clouds.5 mph73%29.92 "HgN/A
3:50 PM70 °FBroken clouds.5 mph78%29.92 "HgN/A
3:20 PM70 °FBroken clouds.5 mph78%29.92 "HgN/A
2:20 PM66 °FLight rain. Broken clouds.3 mph88%29.95 "HgN/A
1:50 PM64 °FLight rain. Broken clouds.5 mph94%29.95 "HgN/A
1:20 PM64 °FLight rain. Broken clouds.6 mph88%29.95 "HgN/A
12:50 PM66 °FLight rain. Broken clouds.5 mph83%29.95 "HgN/A
12:20 PM64 °FLight rain. Broken clouds.3 mph88%29.95 "HgN/A
11:50 AM64 °FLight rain. Broken clouds.3 mph88%29.95 "HgN/A
11:20 AM64 °FLight rain. Broken clouds.2 mph88%29.95 "HgN/A
10:50 AM64 °FLight rain. Broken clouds.2 mph88%29.95 "Hg6 mi
10:20 AM64 °FBroken clouds.1 mph88%29.95 "Hg6 mi
9:50 AM63 °FBroken clouds.1 mph94%29.95 "Hg6 mi
9:20 AM63 °FLight rain. Broken clouds.2 mph94%29.95 "Hg5 mi
8:50 AM63 °FLight rain. Broken clouds.2 mph94%29.95 "Hg5 mi
8:20 AM61 °FLight rain. Broken clouds.1 mph100%29.95 "Hg5 mi
Weather by CustomWeather, © 2014

See weather overviewHow to use our weather pages